Time,TemperatureF,DewpointF,PressureIn,WindDirection,WindDirectionDegrees,WindSpeedMPH,WindSpeedGustMPH,Humidity,HourlyPrecipIn,Conditions,Clouds,dailyrainin,SoftwareType,DateUTC
2013-05-22 00:02:00,64.8,61.8,30.01,SSW,203,0.0,0.0,90,0.00,,,0.01,Wunderground v.1.15,2013-05-22 04:02:00,
2013-05-22 00:04:00,64.8,61.8,30.01,SSW,203,0.0,0.0,90,0.00,,,0.01,Wunderground v.1.15,2013-05-22 04:04:00,
2013-05-22 00:10:00,64.6,61.6,30.01,SSW,203,0.0,0.0,90,0.00,,,0.01,Wunderground v.1.15,2013-05-22 04:10:00,
2013-05-22 00:12:00,64.6,61.6,30.01,SSW,203,0.0,0.0,90,0.00,,,0.01,Wunderground v.1.15,2013-05-22 04:12:00,
2013-05-22 00:16:00,64.7,61.7,30.02,SSW,203,0.0,1.0,90,0.00,,,0.00,Wunderground v.1.15,2013-05-22 04:16:00,
2013-05-22 00:22:00,64.6,61.3,30.02,SSW,203,0.0,0.0,89,0.00,,,0.00,Wunderground v.1.15,2013-05-22 04:22:00,
2013-05-22 00:28:00,64.6,61.6,30.02,SSW,203,0.0,0.0,90,0.00,,,0.00,Wunderground v.1.15,2013-05-22 04:28:00,
2013-05-22 00:34:00,64.4,61.4,30.02,SSW,203,0.0,0.0,90,0.00,,,0.00,Wunderground v.1.15,2013-05-22 04:34:00,
2013-05-22 00:40:00,64.4,61.7,30.01,SSW,203,0.0,0.0,91,0.00,,,0.00,Wunderground v.1.15,2013-05-22 04:40:00,
2013-05-22 00:46:00,64.3,61.6,30.01,SSW,203,0.0,0.0,91,0.00,,,0.00,Wunderground v.1.15,2013-05-22 04:46:00,
2013-05-22 00:52:00,64.2,61.5,30.01,SSW,203,0.0,2.0,91,0.00,,,0.00,Wunderground v.1.15,2013-05-22 04:52:00,
2013-05-22 00:58:00,64.0,61.6,30.00,SSW,203,0.0,2.0,92,0.00,,,0.00,Wunderground v.1.15,2013-05-22 04:58:00,
2013-05-22 01:04:00,63.8,61.4,30.00,SSW,203,0.0,0.0,92,0.00,,,0.00,Wunderground v.1.15,2013-05-22 05:04:00,
2013-05-22 01:10:00,63.8,61.4,30.00,SSW,203,0.0,0.0,92,0.00,,,0.00,Wunderground v.1.15,2013-05-22 05:10:00,
2013-05-22 01:16:00,63.7,61.3,30.00,SSW,203,0.0,0.0,92,0.00,,,0.00,Wunderground v.1.15,2013-05-22 05:16:00,
2013-05-22 01:22:00,63.7,61.3,30.00,SSW,203,0.0,0.0,92,0.00,,,0.00,Wunderground v.1.15,2013-05-22 05:22:00,
2013-05-22 01:28:00,63.7,61.3,30.00,SSW,203,0.0,0.0,92,0.00,,,0.00,Wunderground v.1.15,2013-05-22 05:28:00,
2013-05-22 01:34:00,63.6,61.2,30.00,SSW,203,0.0,0.0,92,0.00,,,0.00,Wunderground v.1.15,2013-05-22 05:34:00,
2013-05-22 01:40:00,63.5,61.1,30.00,SSW,203,0.0,0.0,92,0.00,,,0.00,Wunderground v.1.15,2013-05-22 05:40:00,
2013-05-22 01:46:00,63.5,61.1,30.00,SSW,203,0.0,0.0,92,0.00,,,0.00,Wunderground v.1.15,2013-05-22 05:46:00,
2013-05-22 01:52:00,63.6,61.2,30.00,SSW,203,0.0,0.0,92,0.00,,,0.00,Wunderground v.1.15,2013-05-22 05:52:00,
2013-05-22 01:58:00,63.6,61.2,29.99,SSW,203,0.0,0.0,92,0.00,,,0.00,Wunderground v.1.15,2013-05-22 05:58:00,
2013-05-22 02:04:00,63.2,60.8,30.00,SSW,203,0.0,0.0,92,0.00,,,0.00,Wunderground v.1.15,2013-05-22 06:04:00,
2013-05-22 02:10:00,63.1,60.7,29.99,SSW,203,0.0,0.0,92,0.00,,,0.00,Wunderground v.1.15,2013-05-22 06:10:00,
2013-05-22 02:16:00,63.0,60.6,29.99,SSW,203,0.0,1.0,92,0.00,,,0.00,Wunderground v.1.15,2013-05-22 06:16:00,
2013-05-22 02:22:00,63.0,60.6,29.99,SSW,203,0.0,0.0,92,0.00,,,0.00,Wunderground v.1.15,2013-05-22 06:22:00,
2013-05-22 02:28:00,62.8,60.4,29.99,SSW,203,0.0,0.0,92,0.00,,,0.00,Wunderground v.1.15,2013-05-22 06:28:00,
2013-05-22 02:34:00,62.7,60.3,29.99,SSW,203,0.0,0.0,92,0.00,,,0.00,Wunderground v.1.15,2013-05-22 06:34:00,
2013-05-22 02:40:00,62.7,60.6,29.99,SSW,203,0.0,0.0,93,0.00,,,0.00,Wunderground v.1.15,2013-05-22 06:40:00,
2013-05-22 02:46:00,62.7,60.6,29.98,SSW,203,0.0,0.0,93,0.00,,,0.00,Wunderground v.1.15,2013-05-22 06:46:00,
2013-05-22 02:52:00,62.7,60.6,29.98,SSW,203,0.0,0.0,93,0.00,,,0.00,Wunderground v.1.15,2013-05-22 06:52:00,
2013-05-22 02:58:00,62.5,60.4,29.98,SSW,203,0.0,0.0,93,0.00,,,0.00,Wunderground v.1.15,2013-05-22 06:58:00,
2013-05-22 03:04:00,62.4,60.3,29.98,SSW,203,0.0,0.0,93,0.00,,,0.00,Wunderground v.1.15,2013-05-22 07:04:00,
2013-05-22 03:10:00,62.1,60.1,29.98,SSW,203,0.0,0.0,93,0.00,,,0.00,Wunderground v.1.15,2013-05-22 07:10:00,
2013-05-22 03:16:00,62.0,60.0,29.97,SSW,203,0.0,0.0,93,0.00,,,0.00,Wunderground v.1.15,2013-05-22 07:16:00,
2013-05-22 03:22:00,61.9,60.2,29.97,SSW,203,0.0,0.0,94,0.00,,,0.00,Wunderground v.1.15,2013-05-22 07:22:00,
2013-05-22 03:28:00,61.8,60.1,29.96,SSW,203,0.0,0.0,94,0.00,,,0.00,Wunderground v.1.15,2013-05-22 07:28:00,
2013-05-22 03:34:00,61.9,60.2,29.96,SSW,203,0.0,0.0,94,0.00,,,0.00,Wunderground v.1.15,2013-05-22 07:34:00,
2013-05-22 03:42:00,62.0,60.3,29.96,SSW,202,1.0,1.0,94,0.00,,,0.00,Wunderground v.1.15,2013-05-22 07:42:00,
2013-05-22 03:48:00,61.9,60.2,29.96,SSW,202,1.0,1.0,94,0.00,,,0.00,Wunderground v.1.15,2013-05-22 07:48:00,
2013-05-22 03:54:00,61.9,60.2,29.95,SSW,202,0.0,0.0,94,0.00,,,0.00,Wunderground v.1.15,2013-05-22 07:54:00,
2013-05-22 04:00:00,61.8,60.1,29.95,SSW,202,0.0,0.0,94,0.00,,,0.00,Wunderground v.1.15,2013-05-22 08:00:00,
2013-05-22 04:06:00,61.7,60.0,29.95,SSW,202,0.0,0.0,94,0.00,,,0.00,Wunderground v.1.15,2013-05-22 08:06:00,
2013-05-22 04:12:00,61.5,60.1,29.95,SSW,202,0.0,0.0,95,0.00,,,0.00,Wunderground v.1.15,2013-05-22 08:12:00,
2013-05-22 04:18:00,61.4,60.0,29.95,SSW,202,0.0,0.0,95,0.00,,,0.00,Wunderground v.1.15,2013-05-22 08:18:00,
2013-05-22 04:24:00,61.4,60.0,29.95,SSW,202,0.0,0.0,95,0.00,,,0.00,Wunderground v.1.15,2013-05-22 08:24:00,
2013-05-22 04:30:00,61.3,59.9,29.95,SSW,202,0.0,0.0,95,0.00,,,0.00,Wunderground v.1.15,2013-05-22 08:30:00,
2013-05-22 04:36:00,61.2,59.8,29.95,SSW,202,0.0,0.0,95,0.00,,,0.00,Wunderground v.1.15,2013-05-22 08:36:00,
2013-05-22 04:42:00,61.1,59.7,29.95,SSW,202,0.0,0.0,95,0.00,,,0.00,Wunderground v.1.15,2013-05-22 08:42:00,
2013-05-22 04:48:00,61.1,59.7,29.95,SSW,202,0.0,0.0,95,0.00,,,0.00,Wunderground v.1.15,2013-05-22 08:48:00,
2013-05-22 04:54:00,60.9,59.5,29.95,SSW,202,0.0,0.0,95,0.00,,,0.00,Wunderground v.1.15,2013-05-22 08:54:00,
2013-05-22 05:00:00,60.7,59.3,29.95,SSW,202,0.0,0.0,95,0.00,,,0.00,Wunderground v.1.15,2013-05-22 09:00:00,
2013-05-22 05:06:00,60.4,59.0,29.95,SSW,202,0.0,0.0,95,0.00,,,0.00,Wunderground v.1.15,2013-05-22 09:06:00,
2013-05-22 05:12:00,60.4,59.0,29.95,SSW,202,0.0,0.0,95,0.00,,,0.00,Wunderground v.1.15,2013-05-22 09:12:00,
2013-05-22 05:18:00,60.3,58.9,29.95,SSW,202,0.0,0.0,95,0.00,,,0.00,Wunderground v.1.15,2013-05-22 09:18:00,
2013-05-22 05:24:00,60.1,58.7,29.95,SSW,202,0.0,0.0,95,0.00,,,0.00,Wunderground v.1.15,2013-05-22 09:24:00,
2013-05-22 05:30:00,59.9,58.5,29.95,SSW,202,0.0,0.0,95,0.00,,,0.00,Wunderground v.1.15,2013-05-22 09:30:00,
2013-05-22 05:36:00,59.8,58.4,29.95,SSW,202,0.0,0.0,95,0.00,,,0.00,Wunderground v.1.15,2013-05-22 09:36:00,
2013-05-22 05:42:00,59.6,58.2,29.95,SSW,202,0.0,0.0,95,0.00,,,0.00,Wunderground v.1.15,2013-05-22 09:42:00,
2013-05-22 05:48:00,59.5,58.1,29.96,SSW,202,0.0,0.0,95,0.00,,,0.00,Wunderground v.1.15,2013-05-22 09:48:00,
2013-05-22 05:54:00,59.4,58.0,29.96,SSW,202,0.0,0.0,95,0.00,,,0.00,Wunderground v.1.15,2013-05-22 09:54:00,
2013-05-22 06:00:00,59.4,58.3,29.96,SSW,202,0.0,0.0,96,0.00,,,0.00,Wunderground v.1.15,2013-05-22 10:00:00,
2013-05-22 06:06:00,59.4,58.3,29.96,SSW,202,0.0,0.0,96,0.00,,,0.00,Wunderground v.1.15,2013-05-22 10:06:00,
2013-05-22 06:12:00,59.4,58.3,29.97,SSW,202,0.0,0.0,96,0.00,,,0.00,Wunderground v.1.15,2013-05-22 10:12:00,
2013-05-22 06:18:00,59.2,58.1,29.97,SSW,202,0.0,0.0,96,0.00,,,0.00,Wunderground v.1.15,2013-05-22 10:18:00,
2013-05-22 06:24:00,59.2,58.1,29.98,SSW,202,0.0,0.0,96,0.00,,,0.00,Wunderground v.1.15,2013-05-22 10:24:00,
2013-05-22 06:30:00,59.2,58.1,29.98,SSW,202,0.0,0.0,96,0.00,,,0.00,Wunderground v.1.15,2013-05-22 10:30:00,
2013-05-22 06:36:00,59.3,58.2,29.98,SSW,202,0.0,0.0,96,0.00,,,0.00,Wunderground v.1.15,2013-05-22 10:36:00,
2013-05-22 06:42:00,59.4,58.3,29.98,SSW,202,0.0,0.0,96,0.00,,,0.00,Wunderground v.1.15,2013-05-22 10:42:00,
2013-05-22 06:48:00,59.4,58.3,29.98,SSW,202,0.0,0.0,96,0.00,,,0.00,Wunderground v.1.15,2013-05-22 10:48:00,
2013-05-22 06:54:00,59.4,58.3,29.99,SSW,202,0.0,0.0,96,0.00,,,0.00,Wunderground v.1.15,2013-05-22 10:54:00,
2013-05-22 07:00:00,59.4,58.3,29.99,SSW,202,0.0,0.0,96,0.00,,,0.00,Wunderground v.1.15,2013-05-22 11:00:00,
2013-05-22 07:06:00,59.5,58.4,29.99,SSW,202,0.0,0.0,96,0.00,,,0.00,Wunderground v.1.15,2013-05-22 11:06:00,
2013-05-22 07:12:00,59.6,58.5,29.99,SSW,202,0.0,0.0,96,0.00,,,0.00,Wunderground v.1.15,2013-05-22 11:12:00,
2013-05-22 07:18:00,59.8,58.7,29.98,SSW,202,0.0,0.0,96,0.00,,,0.00,Wunderground v.1.15,2013-05-22 11:18:00,
2013-05-22 07:24:00,60.0,58.9,29.99,SSW,202,0.0,0.0,96,0.00,,,0.00,Wunderground v.1.15,2013-05-22 11:24:00,
2013-05-22 07:30:00,60.5,59.4,29.99,SSW,202,0.0,0.0,96,0.00,,,0.00,Wunderground v.1.15,2013-05-22 11:30:00,
2013-05-22 07:36:00,60.5,59.4,29.99,SSW,202,0.0,0.0,96,0.00,,,0.00,Wunderground v.1.15,2013-05-22 11:36:00,
2013-05-22 07:42:00,60.8,59.7,29.99,SSW,202,0.0,0.0,96,0.00,,,0.00,Wunderground v.1.15,2013-05-22 11:42:00,
2013-05-22 07:48:00,61.4,60.2,29.99,SSW,202,0.0,0.0,96,0.00,,,0.00,Wunderground v.1.15,2013-05-22 11:48:00,
2013-05-22 07:54:00,62.1,60.9,29.99,SSW,202,0.0,0.0,96,0.00,,,0.00,Wunderground v.1.15,2013-05-22 11:54:00,
2013-05-22 08:00:00,62.9,61.4,29.99,SSW,202,0.0,0.0,95,0.00,,,0.00,Wunderground v.1.15,2013-05-22 12:00:00,
2013-05-22 08:06:00,63.6,61.8,29.99,SSW,202,0.0,0.0,94,0.00,,,0.00,Wunderground v.1.15,2013-05-22 12:06:00,
2013-05-22 08:12:00,64.4,62.0,30.00,SSW,202,0.0,0.0,92,0.00,,,0.00,Wunderground v.1.15,2013-05-22 12:12:00,
2013-05-22 08:18:00,65.3,62.0,29.99,SSW,202,0.0,0.0,89,0.00,,,0.00,Wunderground v.1.15,2013-05-22 12:18:00,
2013-05-22 08:24:00,66.0,62.7,29.99,SSW,202,0.0,0.0,89,0.00,,,0.00,Wunderground v.1.15,2013-05-22 12:24:00,
2013-05-22 08:30:00,67.0,63.0,29.99,SSW,202,0.0,0.0,87,0.00,,,0.00,Wunderground v.1.15,2013-05-22 12:30:00,
2013-05-22 08:36:00,67.6,63.3,29.99,SSW,202,0.0,0.0,86,0.00,,,0.00,Wunderground v.1.15,2013-05-22 12:36:00,
2013-05-22 08:42:00,68.1,64.1,29.99,SSW,202,0.0,0.0,87,0.00,,,0.00,Wunderground v.1.15,2013-05-22 12:42:00,
2013-05-22 08:48:00,68.1,63.8,29.98,SSW,201,0.0,2.0,86,0.00,,,0.00,Wunderground v.1.15,2013-05-22 12:48:00,
2013-05-22 08:54:00,68.1,63.4,29.98,SSW,201,1.0,1.0,85,0.00,,,0.00,Wunderground v.1.15,2013-05-22 12:54:00,
2013-05-22 09:00:00,68.1,63.4,29.98,SSW,197,0.0,1.0,85,0.00,,,0.00,Wunderground v.1.15,2013-05-22 13:00:00,
2013-05-22 09:06:00,68.5,63.8,29.98,SSW,197,0.0,1.0,85,0.00,,,0.00,Wunderground v.1.15,2013-05-22 13:06:00,
2013-05-22 09:12:00,69.6,64.5,29.98,SSW,197,0.0,2.0,84,0.00,,,0.00,Wunderground v.1.15,2013-05-22 13:12:00,
2013-05-22 09:18:00,70.5,64.7,29.98,SSW,196,1.0,2.0,82,0.00,,,0.00,Wunderground v.1.15,2013-05-22 13:18:00,
2013-05-22 09:24:00,71.3,64.8,29.98,SSW,196,0.0,1.0,80,0.00,,,0.00,Wunderground v.1.15,2013-05-22 13:24:00,
2013-05-22 09:30:00,72.1,65.2,29.98,South,181,0.0,1.0,79,0.00,,,0.00,Wunderground v.1.15,2013-05-22 13:30:00,
2013-05-22 09:36:00,71.8,64.6,29.98,South,181,1.0,2.0,78,0.00,,,0.00,Wunderground v.1.15,2013-05-22 13:36:00,
2013-05-22 09:42:00,72.2,65.7,29.98,South,181,0.0,0.0,80,0.00,,,0.00,Wunderground v.1.15,2013-05-22 13:42:00,
2013-05-22 09:48:00,73.2,65.6,29.98,SSE,167,1.0,2.0,77,0.00,,,0.00,Wunderground v.1.15,2013-05-22 13:48:00,
2013-05-22 09:54:00,73.7,66.4,29.98,SSE,167,1.0,1.0,78,0.00,,,0.00,Wunderground v.1.15,2013-05-22 13:54:00,
2013-05-22 10:00:00,73.7,65.3,29.97,SE,145,2.0,3.0,75,0.00,,,0.00,Wunderground v.1.15,2013-05-22 14:00:00,
2013-05-22 10:06:00,73.7,65.7,29.97,SSE,163,3.0,3.0,76,0.00,,,0.00,Wunderground v.1.15,2013-05-22 14:06:00,
2013-05-22 10:12:00,74.3,66.2,29.97,SSE,163,2.0,3.0,76,0.00,,,0.00,Wunderground v.1.15,2013-05-22 14:12:00,
2013-05-22 10:18:00,74.7,66.2,29.97,SSE,161,2.0,3.0,75,0.00,,,0.00,Wunderground v.1.15,2013-05-22 14:18:00,
2013-05-22 10:24:00,75.0,65.4,29.97,SSE,160,3.0,7.0,72,0.00,,,0.00,Wunderground v.1.15,2013-05-22 14:24:00,
2013-05-22 10:30:00,75.1,66.2,29.97,SSE,157,2.0,3.0,74,0.00,,,0.00,Wunderground v.1.15,2013-05-22 14:30:00,
2013-05-22 10:36:00,75.1,65.9,29.97,SSE,152,3.0,6.0,73,0.00,,,0.00,Wunderground v.1.15,2013-05-22 14:36:00,
2013-05-22 10:42:00,75.6,67.5,29.97,SSE,152,3.0,4.0,76,0.00,,,0.00,Wunderground v.1.15,2013-05-22 14:42:00,
2013-05-22 10:48:00,76.3,66.6,29.97,SSE,160,2.0,4.0,72,0.00,,,0.00,Wunderground v.1.15,2013-05-22 14:48:00,
2013-05-22 10:54:00,75.7,66.0,29.97,SSE,159,2.0,5.0,72,0.00,,,0.00,Wunderground v.1.15,2013-05-22 14:54:00,
2013-05-22 11:00:00,75.1,65.9,29.98,SSE,161,2.0,2.0,73,0.00,,,0.00,Wunderground v.1.15,2013-05-22 15:00:00,
2013-05-22 11:06:00,74.8,66.0,29.98,SSE,161,2.0,3.0,74,0.00,,,0.00,Wunderground v.1.15,2013-05-22 15:06:00,
2013-05-22 11:12:00,74.7,65.9,29.97,SSE,160,2.0,2.0,74,0.00,,,0.00,Wunderground v.1.15,2013-05-22 15:12:00,
2013-05-22 11:18:00,75.1,66.2,29.97,South,169,3.0,4.0,74,0.00,,,0.00,Wunderground v.1.15,2013-05-22 15:18:00,
2013-05-22 11:24:00,75.2,66.3,29.97,South,171,4.0,6.0,74,0.00,,,0.00,Wunderground v.1.15,2013-05-22 15:24:00,
2013-05-22 11:30:00,76.1,66.4,29.97,SE,128,3.0,5.0,72,0.00,,,0.00,Wunderground v.1.15,2013-05-22 15:30:00,
2013-05-22 11:36:00,76.7,66.2,29.97,SSE,162,3.0,5.0,70,0.00,,,0.00,Wunderground v.1.15,2013-05-22 15:36:00,
2013-05-22 11:42:00,76.9,66.0,29.97,SE,131,2.0,4.0,69,0.00,,,0.00,Wunderground v.1.15,2013-05-22 15:42:00,
2013-05-22 11:48:00,77.4,66.0,29.97,SE,144,4.0,8.0,68,0.00,,,0.00,Wunderground v.1.15,2013-05-22 15:48:00,
2013-05-22 11:54:00,77.1,66.6,29.97,SSE,167,5.0,7.0,70,0.00,,,0.00,Wunderground v.1.15,2013-05-22 15:54:00,
2013-05-22 12:00:00,78.3,66.9,29.97,South,181,4.0,4.0,68,0.00,,,0.00,Wunderground v.1.15,2013-05-22 16:00:00,
2013-05-22 12:06:00,79.1,66.3,29.97,South,190,3.0,5.0,65,0.00,,,0.00,Wunderground v.1.15,2013-05-22 16:06:00,
2013-05-22 12:12:00,79.4,66.2,29.97,SSE,168,4.0,4.0,64,0.00,,,0.00,Wunderground v.1.15,2013-05-22 16:12:00,
2013-05-22 12:18:00,78.5,66.2,29.97,SSE,148,5.0,9.0,66,0.00,,,0.00,Wunderground v.1.15,2013-05-22 16:18:00,
2013-05-22 12:24:00,78.7,65.5,29.96,SSE,167,6.0,10.0,64,0.00,,,0.00,Wunderground v.1.15,2013-05-22 16:24:00,
2013-05-22 12:30:00,79.2,66.0,29.96,SSE,165,6.0,6.0,64,0.00,,,0.00,Wunderground v.1.15,2013-05-22 16:30:00,
2013-05-22 12:36:00,79.2,65.1,29.96,SE,144,7.0,8.0,62,0.00,,,0.00,Wunderground v.1.15,2013-05-22 16:36:00,
2013-05-22 12:42:00,78.2,64.6,29.96,South,173,7.0,8.0,63,0.00,,,0.00,Wunderground v.1.15,2013-05-22 16:42:00,
2013-05-22 12:48:00,78.1,64.9,29.96,SW,232,4.0,8.0,64,0.00,,,0.00,Wunderground v.1.15,2013-05-22 16:48:00,
2013-05-22 12:54:00,77.6,63.5,29.96,SW,235,2.0,6.0,62,0.00,,,0.00,Wunderground v.1.15,2013-05-22 16:54:00,
2013-05-22 13:00:00,77.1,64.4,29.96,WSW,237,2.0,2.0,65,0.00,,,0.00,Wunderground v.1.15,2013-05-22 17:00:00,
2013-05-22 13:06:00,77.3,65.1,29.96,SSE,149,3.0,7.0,66,0.00,,,0.00,Wunderground v.1.15,2013-05-22 17:06:00,
2013-05-22 13:12:00,78.2,65.5,29.95,SSE,154,2.0,3.0,65,0.00,,,0.00,Wunderground v.1.15,2013-05-22 17:12:00,
2013-05-22 13:18:00,78.4,65.2,29.95,SSE,167,2.0,13.0,64,0.00,,,0.00,Wunderground v.1.15,2013-05-22 17:18:00,
2013-05-22 13:24:00,78.6,64.9,29.94,South,179,4.0,4.0,63,0.00,,,0.00,Wunderground v.1.15,2013-05-22 17:24:00,
2013-05-22 13:30:00,79.7,66.0,29.94,South,182,4.0,11.0,63,0.00,,,0.00,Wunderground v.1.15,2013-05-22 17:30:00,
2013-05-22 13:36:00,79.7,66.0,29.94,South,190,5.0,11.0,63,0.00,,,0.00,Wunderground v.1.15,2013-05-22 17:36:00,
2013-05-22 13:42:00,80.4,65.7,29.94,South,179,5.0,10.0,61,0.00,,,0.00,Wunderground v.1.15,2013-05-22 17:42:00,
2013-05-22 13:48:00,79.9,64.8,29.94,South,171,7.0,10.0,60,0.00,,,0.00,Wunderground v.1.15,2013-05-22 17:48:00,
2013-05-22 13:54:00,79.4,66.2,29.94,South,175,7.0,11.0,64,0.00,,,0.00,Wunderground v.1.15,2013-05-22 17:54:00,
2013-05-22 14:00:00,78.9,64.8,29.93,SSE,151,8.0,8.0,62,0.00,,,0.00,Wunderground v.1.15,2013-05-22 18:00:00,
2013-05-22 14:06:00,79.3,67.4,29.93,South,175,7.0,8.0,67,0.00,,,0.00,Wunderground v.1.15,2013-05-22 18:06:00,
2013-05-22 14:12:00,80.5,65.8,29.94,SSE,163,4.0,7.0,61,0.00,,,0.00,Wunderground v.1.15,2013-05-22 18:12:00,
2013-05-22 14:18:00,79.3,66.1,29.93,SSE,164,8.0,19.0,64,0.00,,,0.00,Wunderground v.1.15,2013-05-22 18:18:00,
2013-05-22 14:24:00,79.7,65.5,29.93,SW,217,7.0,9.0,62,0.00,,,0.00,Wunderground v.1.15,2013-05-22 18:24:00,
2013-05-22 14:30:00,79.8,66.1,29.93,South,184,6.0,6.0,63,0.00,,,0.00,Wunderground v.1.15,2013-05-22 18:30:00,
2013-05-22 14:36:00,81.1,66.4,29.93,SSE,161,5.0,7.0,61,0.00,,,0.00,Wunderground v.1.15,2013-05-22 18:36:00,
2013-05-22 14:42:00,80.7,66.5,29.93,South,186,4.0,10.0,62,0.00,,,0.00,Wunderground v.1.15,2013-05-22 18:42:00,
2013-05-22 14:48:00,79.4,65.7,29.93,ESE,122,6.0,12.0,63,0.00,,,0.00,Wunderground v.1.15,2013-05-22 18:48:00,
2013-05-22 14:54:00,78.7,66.4,29.93,South,183,8.0,20.0,66,0.00,,,0.00,Wunderground v.1.15,2013-05-22 18:54:00,
2013-05-22 15:00:00,77.7,65.4,29.93,SSE,157,10.0,10.0,66,0.00,,,0.00,Wunderground v.1.15,2013-05-22 19:00:00,
2013-05-22 15:06:00,77.9,66.9,29.92,SSE,155,8.0,10.0,69,0.00,,,0.00,Wunderground v.1.15,2013-05-22 19:06:00,
2013-05-22 15:12:00,78.5,66.6,29.92,South,183,6.0,11.0,67,0.00,,,0.00,Wunderground v.1.15,2013-05-22 19:12:00,
2013-05-22 15:18:00,78.0,65.7,29.92,South,185,9.0,17.0,66,0.00,,,0.00,Wunderground v.1.15,2013-05-22 19:18:00,
2013-05-22 15:24:00,77.6,66.2,29.92,SE,129,10.0,14.0,68,0.00,,,0.00,Wunderground v.1.15,2013-05-22 19:24:00,
2013-05-22 15:30:00,77.1,66.1,29.91,South,178,9.0,15.0,69,0.00,,,0.00,Wunderground v.1.15,2013-05-22 19:30:00,
2013-05-22 15:36:00,77.0,66.9,29.91,South,175,9.0,15.0,71,0.00,,,0.00,Wunderground v.1.15,2013-05-22 19:36:00,
2013-05-22 15:42:00,76.8,66.7,29.91,SSE,155,9.0,10.0,71,0.00,,,0.00,Wunderground v.1.15,2013-05-22 19:42:00,
2013-05-22 15:48:00,76.5,67.6,29.90,SSE,151,9.0,13.0,74,0.00,,,0.00,Wunderground v.1.15,2013-05-22 19:48:00,
2013-05-22 15:54:00,76.5,67.6,29.90,South,182,7.0,9.0,74,0.00,,,0.00,Wunderground v.1.15,2013-05-22 19:54:00,
2013-05-22 16:00:00,76.3,67.8,29.90,South,177,6.0,13.0,75,0.00,,,0.00,Wunderground v.1.15,2013-05-22 20:00:00,
2013-05-22 16:06:00,76.5,67.6,29.90,South,172,7.0,13.0,74,0.00,,,0.00,Wunderground v.1.15,2013-05-22 20:06:00,
2013-05-22 16:12:00,77.6,68.3,29.90,SSE,153,4.0,6.0,73,0.00,,,0.00,Wunderground v.1.15,2013-05-22 20:12:00,
2013-05-22 16:18:00,77.5,68.2,29.89,SE,145,4.0,8.0,73,0.00,,,0.00,Wunderground v.1.15,2013-05-22 20:18:00,
2013-05-22 16:24:00,77.3,68.4,29.89,SE,128,6.0,10.0,74,0.00,,,0.00,Wunderground v.1.15,2013-05-22 20:24:00,
2013-05-22 16:30:00,75.8,68.8,29.89,SSE,161,6.0,6.0,79,0.00,,,0.00,Wunderground v.1.15,2013-05-22 20:30:00,
2013-05-22 16:36:00,75.4,69.2,29.88,South,169,5.0,7.0,81,0.00,,,0.00,Wunderground v.1.15,2013-05-22 20:36:00,
2013-05-22 16:42:00,75.1,68.5,29.88,SSE,164,6.0,8.0,80,0.00,,,0.00,Wunderground v.1.15,2013-05-22 20:42:00,
2013-05-22 16:48:00,74.9,67.6,29.88,SSE,164,7.0,10.0,78,0.00,,,0.00,Wunderground v.1.15,2013-05-22 20:48:00,
2013-05-22 16:54:00,74.7,67.0,29.88,South,183,6.0,9.0,77,0.00,,,0.00,Wunderground v.1.15,2013-05-22 20:54:00,
2013-05-22 17:00:00,73.9,65.5,29.88,SSE,159,6.0,6.0,75,0.00,,,0.00,Wunderground v.1.15,2013-05-22 21:00:00,
2013-05-22 17:06:00,72.4,65.9,29.88,South,176,7.0,9.0,80,0.00,,,0.00,Wunderground v.1.15,2013-05-22 21:06:00,
2013-05-22 17:12:00,71.0,65.2,29.90,SSW,193,5.0,6.0,82,0.00,,,0.01,Wunderground v.1.15,2013-05-22 21:12:00,
2013-05-22 17:18:00,70.5,64.0,29.90,WNW,284,2.0,6.0,80,0.00,,,0.01,Wunderground v.1.15,2013-05-22 21:18:00,
2013-05-22 17:24:00,69.4,62.6,29.89,West,275,5.0,6.0,79,0.00,,,0.01,Wunderground v.1.15,2013-05-22 21:24:00,
2013-05-22 17:30:00,68.3,62.6,29.89,West,265,4.0,4.0,82,0.00,,,0.01,Wunderground v.1.15,2013-05-22 21:30:00,
2013-05-22 17:36:00,67.6,62.6,29.91,West,265,1.0,4.0,84,0.00,,,0.02,Wunderground v.1.15,2013-05-22 21:36:00,
2013-05-22 17:42:00,66.9,62.9,29.90,SSE,163,2.0,7.0,87,0.60,,,0.07,Wunderground v.1.15,2013-05-22 21:42:00,
2013-05-22 17:48:00,65.9,61.9,29.89,South,169,5.0,8.0,87,0.13,,,0.09,Wunderground v.1.15,2013-05-22 21:48:00,
2013-05-22 17:54:00,65.4,61.8,29.87,SSE,165,4.0,5.0,88,0.09,,,0.09,Wunderground v.1.15,2013-05-22 21:54:00,
2013-05-22 18:00:00,65.2,61.9,29.88,SE,132,2.0,2.0,89,0.06,,,0.10,Wunderground v.1.15,2013-05-22 22:00:00,
2013-05-22 18:06:00,65.3,62.0,29.91,SE,132,1.0,2.0,89,0.06,,,0.10,Wunderground v.1.15,2013-05-22 22:06:00,
2013-05-22 18:12:00,65.2,62.2,29.91,SE,132,0.0,1.0,90,0.04,,,0.10,Wunderground v.1.15,2013-05-22 22:12:00,
2013-05-22 18:18:00,65.2,61.9,29.91,SE,132,0.0,1.0,89,0.00,,,0.10,Wunderground v.1.15,2013-05-22 22:18:00,
2013-05-22 18:24:00,65.3,62.6,29.91,SE,132,0.0,2.0,91,0.00,,,0.10,Wunderground v.1.15,2013-05-22 22:24:00,
2013-05-22 18:30:00,65.0,62.3,29.92,SE,135,2.0,3.0,91,0.00,,,0.10,Wunderground v.1.15,2013-05-22 22:30:00,
2013-05-22 18:36:00,64.8,62.4,29.91,ESE,121,4.0,8.0,92,0.00,,,0.10,Wunderground v.1.15,2013-05-22 22:36:00,
2013-05-22 18:42:00,64.6,61.9,29.91,SE,131,5.0,6.0,91,0.00,,,0.10,Wunderground v.1.15,2013-05-22 22:42:00,
2013-05-22 18:48:00,64.6,61.9,29.91,SE,131,2.0,6.0,91,0.00,,,0.10,Wunderground v.1.15,2013-05-22 22:48:00,
2013-05-22 18:54:00,64.6,61.9,29.92,SSE,159,1.0,7.0,91,0.00,,,0.10,Wunderground v.1.15,2013-05-22 22:54:00,
2013-05-22 19:00:00,64.6,61.6,29.92,SSE,159,1.0,1.0,90,0.00,,,0.10,Wunderground v.1.15,2013-05-22 23:00:00,
2013-05-22 19:06:00,64.5,61.5,29.91,SSE,159,0.0,3.0,90,0.00,,,0.10,Wunderground v.1.15,2013-05-22 23:06:00,
2013-05-22 19:12:00,64.5,61.5,29.91,SSE,159,1.0,1.0,90,0.00,,,0.10,Wunderground v.1.15,2013-05-22 23:12:00,
2013-05-22 19:18:00,64.5,61.5,29.90,SSE,159,0.0,1.0,90,0.00,,,0.10,Wunderground v.1.15,2013-05-22 23:18:00,
2013-05-22 19:24:00,64.5,61.5,29.91,SSE,159,1.0,4.0,90,0.00,,,0.10,Wunderground v.1.15,2013-05-22 23:24:00,
2013-05-22 19:30:00,64.3,61.6,29.91,SSE,159,2.0,2.0,91,0.00,,,0.10,Wunderground v.1.15,2013-05-22 23:30:00,
2013-05-22 19:36:00,64.5,62.1,29.91,SSE,159,0.0,2.0,92,0.00,,,0.10,Wunderground v.1.15,2013-05-22 23:36:00,
2013-05-22 19:42:00,64.7,62.0,29.91,SSE,159,0.0,1.0,91,0.00,,,0.10,Wunderground v.1.15,2013-05-22 23:42:00,
2013-05-22 19:48:00,64.9,62.2,29.93,SSE,159,2.0,4.0,91,0.00,,,0.10,Wunderground v.1.15,2013-05-22 23:48:00,
2013-05-22 19:54:00,64.9,62.5,29.93,SSE,157,3.0,5.0,92,0.00,,,0.10,Wunderground v.1.15,2013-05-22 23:54:00,
2013-05-22 20:00:00,64.8,62.4,29.93,SSE,156,2.0,3.0,92,0.00,,,0.10,Wunderground v.1.15,2013-05-23 00:00:00,
2013-05-22 20:06:00,64.9,62.5,29.93,SSE,156,1.0,3.0,92,0.00,,,0.10,Wunderground v.1.15,2013-05-23 00:06:00,
2013-05-22 20:12:00,64.9,62.5,29.93,SSE,155,1.0,2.0,92,0.00,,,0.10,Wunderground v.1.15,2013-05-23 00:12:00,
2013-05-22 20:18:00,64.7,62.3,29.92,SE,136,3.0,7.0,92,0.00,,,0.10,Wunderground v.1.15,2013-05-23 00:18:00,
2013-05-22 20:24:00,64.7,62.3,29.92,SE,132,4.0,6.0,92,0.00,,,0.10,Wunderground v.1.15,2013-05-23 00:24:00,
2013-05-22 20:30:00,64.7,62.0,29.92,SE,132,2.0,2.0,91,0.00,,,0.10,Wunderground v.1.15,2013-05-23 00:30:00,
2013-05-22 20:36:00,64.8,62.1,29.93,SE,132,1.0,2.0,91,0.00,,,0.10,Wunderground v.1.15,2013-05-23 00:36:00,
2013-05-22 20:42:00,64.7,62.0,29.93,ENE,70,3.0,5.0,91,0.00,,,0.10,Wunderground v.1.15,2013-05-23 00:42:00,
2013-05-22 20:48:00,64.6,61.9,29.93,ENE,63,4.0,5.0,91,0.00,,,0.10,Wunderground v.1.15,2013-05-23 00:48:00,
2013-05-22 20:54:00,64.5,61.8,29.93,East,85,3.0,4.0,91,0.00,,,0.10,Wunderground v.1.15,2013-05-23 00:54:00,
2013-05-22 21:00:00,64.4,61.7,29.93,ESE,104,4.0,5.0,91,0.00,,,0.10,Wunderground v.1.15,2013-05-23 01:00:00,
2013-05-22 21:06:00,64.1,61.4,29.93,ESE,105,3.0,5.0,91,0.00,,,0.10,Wunderground v.1.15,2013-05-23 01:06:00,
2013-05-22 21:12:00,64.0,61.3,29.93,ESE,105,2.0,4.0,91,0.00,,,0.10,Wunderground v.1.15,2013-05-23 01:12:00,
2013-05-22 21:18:00,63.8,61.4,29.93,ESE,105,1.0,4.0,92,0.00,,,0.10,Wunderground v.1.15,2013-05-23 01:18:00,
2013-05-22 21:24:00,63.7,61.3,29.94,ESE,105,0.0,2.0,92,0.00,,,0.10,Wunderground v.1.15,2013-05-23 01:24:00,
2013-05-22 21:30:00,63.6,61.5,29.94,ESE,105,1.0,1.0,93,0.00,,,0.11,Wunderground v.1.15,2013-05-23 01:30:00,
2013-05-22 21:36:00,63.5,61.4,29.94,ESE,105,0.0,1.0,93,0.00,,,0.11,Wunderground v.1.15,2013-05-23 01:36:00,
2013-05-22 21:42:00,63.5,61.7,29.94,ESE,105,1.0,4.0,94,0.46,,,0.13,Wunderground v.1.15,2013-05-23 01:42:00,
2013-05-22 21:48:00,63.2,61.4,29.94,SE,126,2.0,4.0,94,0.16,,,0.15,Wunderground v.1.15,2013-05-23 01:48:00,
2013-05-22 21:54:00,63.0,61.5,29.94,SE,126,1.0,2.0,95,0.06,,,0.15,Wunderground v.1.15,2013-05-23 01:54:00,
2013-05-22 22:00:00,63.1,61.6,29.96,SE,129,0.0,2.0,95,0.05,,,0.16,Wunderground v.1.15,2013-05-23 02:00:00,
2013-05-22 22:06:00,63.1,61.6,29.98,WSW,252,2.0,5.0,95,0.08,,,0.17,Wunderground v.1.15,2013-05-23 02:06:00,
2013-05-22 22:12:00,62.5,60.7,29.96,West,279,3.0,3.0,94,0.38,,,0.24,Wunderground v.1.15,2013-05-23 02:12:00,
2013-05-22 22:18:00,62.1,60.1,29.96,SW,214,2.0,3.0,93,0.16,,,0.26,Wunderground v.1.15,2013-05-23 02:18:00,
2013-05-22 22:24:00,62.0,60.0,29.96,SSW,198,2.0,5.0,93,0.07,,,0.26,Wunderground v.1.15,2013-05-23 02:24:00,
2013-05-22 22:30:00,62.0,60.3,29.97,SSE,165,3.0,4.0,94,0.04,,,0.26,Wunderground v.1.15,2013-05-23 02:30:00,
2013-05-22 22:36:00,62.0,60.3,29.97,SSE,165,2.0,4.0,94,0.00,,,0.26,Wunderground v.1.15,2013-05-23 02:36:00,
2013-05-22 22:42:00,62.1,60.7,29.97,SSE,165,0.0,1.0,95,0.00,,,0.26,Wunderground v.1.15,2013-05-23 02:42:00,
2013-05-22 22:48:00,62.2,60.8,29.96,SSE,165,0.0,1.0,95,0.00,,,0.26,Wunderground v.1.15,2013-05-23 02:48:00,
2013-05-22 22:54:00,62.1,60.4,29.97,SSE,165,0.0,0.0,94,0.00,,,0.26,Wunderground v.1.15,2013-05-23 02:54:00,
2013-05-22 23:00:00,62.1,60.4,29.97,SSE,165,0.0,0.0,94,0.00,,,0.26,Wunderground v.1.15,2013-05-23 03:00:00,
2013-05-22 23:06:00,62.1,60.4,29.97,SSE,165,0.0,0.0,94,0.00,,,0.26,Wunderground v.1.15,2013-05-23 03:06:00,
2013-05-22 23:12:00,62.2,60.5,29.97,SSE,165,0.0,0.0,94,0.00,,,0.26,Wunderground v.1.15,2013-05-23 03:12:00,
2013-05-22 23:18:00,62.0,60.6,29.97,SSE,165,0.0,0.0,95,0.00,,,0.26,Wunderground v.1.15,2013-05-23 03:18:00,
2013-05-22 23:24:00,62.0,60.6,29.97,SSE,165,0.0,0.0,95,0.00,,,0.26,Wunderground v.1.15,2013-05-23 03:24:00,
2013-05-22 23:30:00,62.0,60.6,29.96,SSE,165,0.0,3.0,95,0.00,,,0.27,Wunderground v.1.15,2013-05-23 03:30:00,
2013-05-22 23:36:00,62.0,60.6,29.97,SSE,165,1.0,3.0,95,0.24,,,0.29,Wunderground v.1.15,2013-05-23 03:36:00,
2013-05-22 23:42:00,61.9,60.5,29.97,SSE,165,0.0,0.0,95,0.10,,,0.30,Wunderground v.1.15,2013-05-23 03:42:00,
2013-05-22 23:48:00,61.9,60.7,29.96,SSE,165,1.0,2.0,96,0.33,,,0.33,Wunderground v.1.15,2013-05-23 03:48:00,
2013-05-22 23:54:00,61.7,60.3,29.95,SSE,164,2.0,3.0,95,0.22,,,0.37,Wunderground v.1.15,2013-05-23 03:54:00,